#timestamp,LO_Frequency,Hit 
1500350415.9,286047222.0,N
1500350435.7,286047218.9,N
1500350455.5,286047219.7,N
1500350475.4,286047219.3,N
1500350495.2,286047219.8,N
1500350515.0,286047220.4,N
1500350515.9,286047220.4,N
1500350535.8,286047220.3,N
1500350555.6,286047217.3,N
1500350575.4,286047219.6,N
1500350595.3,286047220.5,N
1500350615.1,286047222.5,N
1500350616.0,286047222.5,N
1500350635.8,286047225.0,N
1500350655.7,286047222.2,N
1500350675.5,286047224.6,N
1500350695.3,286047223.7,N
1500350715.2,286047223.5,N
1500350735.9,286047219.1,N
1500350755.7,286047219.9,N
1500350775.6,286047219.1,N
1500350795.4,286047218.9,N
1500350815.2,286047221.4,N
1500350835.0,286047221.9,N
1500350836.0,286047221.9,N
1500350855.8,286047221.5,N
1500350875.6,286047219.5,N
1500350895.4,286047222.0,N
1500350915.3,286047221.8,N
1500350935.1,286047222.1,N
1500350955.8,286047224.7,N
1500350975.7,286047226.7,N
1500350995.5,286047228.1,N
1500351015.3,286047226.0,N
1500351035.2,286047228.2,N
1500351055.0,286047229.6,N
1500351055.9,286047229.6,N
1500351075.7,286047229.1,N
1500351095.6,286047229.8,N
1500351115.4,286047230.3,N
1500351135.2,286047229.8,N
1500351155.1,286047229.9,N
1500351156.0,286047229.9,N
1500351175.8,286047230.0,N
1500351195.6,286047229.9,N
1500351215.5,286047229.3,N
1500351235.3,286047229.4,N
1500351255.1,286047230.7,N
1500351275.9,286047232.3,N
1500351295.7,286047233.7,N
1500351315.5,286047236.4,N
1500351335.4,286047237.8,N
1500351355.2,286047237.2,N
1500351375.0,286047237.7,N
1500351375.9,286047237.7,N
1500351395.8,286047237.5,N
1500351415.6,286047237.3,N
1500351435.4,286047237.6,N
1500351455.3,286047237.8,N
1500351475.1,286047237.7,N
1500351476.0,286047237.7,N
1500351495.8,286047234.9,N
1500351515.7,286047235.6,N
1500351535.5,286047237.5,N
1500351555.3,286047236.2,N
1500351575.2,286047235.8,N
1500351595.9,286047235.1,N
1500351615.7,286047234.9,N
1500351635.6,286047233.8,N
1500351655.4,286047233.5,N
1500351675.2,286047233.4,N
1500351695.0,286047236.0,N
1500351696.0,286047236.0,N
1500351715.8,286047234.5,N
1500351735.6,286047233.5,N
1500351755.4,286047232.0,N
1500351775.3,286047233.0,N
1500351795.1,286047234.4,N
1500351815.8,286047234.6,N
1500351835.7,286047230.7,N
1500351855.5,286047232.9,N
1500351875.3,286047232.2,N
1500351895.2,286047234.0,N
1500351915.0,286047234.1,N
1500351915.9,286047234.1,N
1500351935.7,286047233.1,N
1500351955.6,286047231.1,N
1500351975.4,286047230.2,N
1500351995.2,286047232.5,N
1500352015.1,286047232.9,N
1500352016.0,286047232.9,N
1500352035.8,286047232.2,N
1500352055.6,286047232.1,N
1500352075.5,286047231.7,N
1500352095.3,286047230.1,N
1500352115.1,286047234.8,N
1500352135.9,286047230.3,N
1500352155.7,286047230.6,N
1500352175.5,286047230.4,N
1500352195.4,286047232.7,N
1500352215.2,286047234.8,N
1500352235.0,286047232.5,N
1500352235.9,286047232.5,N
1500352255.8,286047234.2,N
1500352275.6,286047233.4,N
1500352295.4,286047237.4,N
1500352315.3,286047237.3,N
1500352335.1,286047235.2,N
1500352336.0,286047235.2,N
1500352355.8,286047234.2,N
1500352375.7,286047233.6,N
1500352395.5,286047234.3,N
1500352415.3,286047233.5,N
1500352435.1,286047232.4,N
1500352455.9,286047229.3,N
1500352475.7,286047229.4,N
1500352495.5,286047228.9,N
1500352515.4,286047233.0,N
1500352535.2,286047232.0,N
1500352555.0,286047233.5,N
1500352555.9,286047233.5,N
1500352575.8,286047233.5,N
1500352595.6,286047234.4,N
1500352615.4,286047230.4,N
1500352635.3,286047232.7,N
1500352655.1,286047232.1,N
1500352675.8,286047234.3,N
1500352695.7,286047234.8,N
1500352715.5,286047236.3,N
1500352735.3,286047233.3,N
1500352755.2,286047234.1,N
1500352775.9,286047235.9,N
1500352795.7,286047235.3,N
1500352815.6,286047232.5,N
1500352835.4,286047230.5,N
1500352855.2,286047236.3,N
1500352875.1,286047233.4,N
1500352876.0,286047233.4,N
1500352895.8,286047230.8,N
1500352915.6,286047234.5,N
1500352935.4,286047235.8,N
1500352955.3,286047233.1,N
1500352975.1,286047230.2,N
1500352995.8,286047233.1,N
1500353015.7,286047231.9,N
1500353035.5,286047233.0,N
1500353055.3,286047228.8,N
1500353075.2,286047230.5,N
1500353095.9,286047231.7,N
1500353115.7,286047234.5,N
1500353135.6,286047234.6,N
1500353155.4,286047232.9,N
1500353175.2,286047233.0,N
1500353195.1,286047230.4,N
1500353196.0,286047230.4,N
1500353215.8,286047230.6,N
1500353235.6,286047234.7,N
1500353255.5,286047235.0,N
1500353275.3,286047237.2,N
1500353295.1,286047235.0,N
1500353315.9,286047237.2,N
1500353335.7,286047235.6,N
1500353355.5,286047237.4,N
1500353375.4,286047237.6,N
1500353395.2,286047237.4,N
1500353415.0,286047237.0,N
1500353415.9,286047237.0,N
1500353435.8,286047235.3,N
1500353455.6,286047233.4,N
1500353475.4,286047234.7,N
1500353495.2,286047230.9,N
1500353515.1,286047232.6,N
1500353516.0,286047232.6,N
1500353535.8,286047230.8,N
1500353555.6,286047232.1,N
1500353575.5,286047230.5,N
1500353595.3,286047232.9,N
1500353615.1,286047233.6,N
1500353635.9,286047234.7,N
1500353655.7,286047234.5,N
1500353675.5,286047230.6,N
1500353695.4,286047228.9,N
1500353715.2,286047231.2,N
1500353735.0,286047231.8,N
1500353735.9,286047231.8,N
1500353755.8,286047230.6,N
1500353775.6,286047228.5,N
1500353795.4,286047229.7,N
1500353815.3,286047227.4,N
1500353835.1,286047229.9,N
1500353836.0,286047229.9,N
1500353855.8,286047230.2,N
1500353875.7,286047232.2,N
1500353895.5,286047232.6,N
1500353915.3,286047232.5,N
1500353935.2,286047231.7,N
1500353955.9,286047233.1,N
1500353975.7,286047229.7,N
1500353995.6,286047229.5,N
